Weather History for Douglas, WY

Change the Weather History Date:

Wednesday, January 2, 2013

  Actual Average Record
Temperature  
Mean Temperature 17 °F 24 °F  
Max Temperature 27 °F 38 °F 57 °F (1981)
Min Temperature 6 °F 10 °F -9 °F (2002)
Degree Days  
Heating Degree Days 48 41  
Month to date heating degree days 96 82  
Since 1 July heating degree days 2723 3171  
Cooling Degree Days 0 0  
Month to date cooling degree days 0 0  
Year to date cooling degree days 0 0  
Moisture  
Dew Point 12 °F    
Average Humidity 67    
Maximum Humidity 84    
Minimum Humidity 50    
Precipitation  
Precipitation T in 0.01 in 0.12 in (2014)
Month to date precipitation T 0.02  
Year to date precipitation T 0.02  
Sea Level Pressure  
Sea Level Pressure 30.28 in    
Wind  
Wind Speed 16 mph (NW)    
Max Wind Speed 29 mph    
Max Gust Speed 36 mph    
Visibility 9 miles    
Events Snow    
T = Trace of Precipitation, MM = Missing Value Source: NWS Daily Summary

Daily Weather History Graph

Daily Weather History Graph

Search for Another Location

Airport:

Trip Planner

Search our weather history database for the weather conditions in past years. The results will help you decide how hot, cold, wet, or windy it might be!

Date:

Astronomy

Jan. 02, 2013 Rise Set
Actual Time 7:32 AM MST 4:39 PM MST
Civil Twilight 7:00 AM MST 5:11 PM MST
Nautical Twilight 6:24 AM MST 5:47 PM MST
Astronomical Twilight 5:50 AM MST 6:21 PM MST
Moon 10:23 PM MST (1/2) 10:07 AM MST (1/2)
Length of Visible Light 10h 11m
Length of Day
9h 07m
Waning Gibbous, 74% of the Moon is Illuminated
Jan 2
Waning Gibbous
Jan 4
Last Quarter
Jan 11
New
Jan 18
First Quarter
Jan 26
Full

Hourly Weather History & Observations

Time (MST) Temp. Windchill Dew Point Humidity Pressure Visibility Wind Dir Wind Speed Gust Speed Precip Events Conditions
12:21 AM 23.0 °F 8.0 °F 19.4 °F 86% 30.13 in 1.8 mi NW 20.7 mph 25.3 mph 0.00 in Snow Light Snow
12:24 AM 21.2 °F 6.4 °F 19.4 °F 93% 30.13 in 1.0 mi WNW 18.4 mph - 0.00 in Snow Light Snow
12:42 AM 21.2 °F 7.3 °F 17.6 °F 86% 30.13 in 1.8 mi WNW 16.1 mph - 0.00 in Snow Light Snow
12:45 AM 21.2 °F 6.8 °F 17.6 °F 86% 30.13 in 2.5 mi WNW 17.3 mph - 0.00 in Snow Light Snow
12:53 AM 21.9 °F 7.8 °F 18.0 °F 85% 30.26 in 6.0 mi WNW 17.3 mph - 0.00 in   Overcast
1:17 AM 21.2 °F 6.8 °F 17.6 °F 86% 30.13 in 10.0 mi West 17.3 mph - 0.00 in   Overcast
1:53 AM 21.9 °F 7.3 °F 17.1 °F 82% 30.26 in 10.0 mi WNW 18.4 mph - 0.00 in   Overcast
2:53 AM 21.0 °F 7.1 °F 15.1 °F 78% 30.26 in 10.0 mi WNW 16.1 mph - N/A   Overcast
3:27 AM 21.2 °F 6.4 °F 14.0 °F 74% 30.12 in 10.0 mi WNW 18.4 mph - N/A   Overcast
3:53 AM 21.0 °F 6.2 °F 14.0 °F 74% 30.25 in 9.0 mi WNW 18.4 mph - 0.00 in Snow Light Snow
4:17 AM 19.4 °F 7.2 °F 12.2 °F 74% 30.14 in 10.0 mi NW 11.5 mph - 0.00 in   Overcast
4:40 AM 19.4 °F 6.0 °F 12.2 °F 74% 30.14 in 10.0 mi NW 13.8 mph - 0.00 in   Overcast
4:53 AM 19.9 °F 5.7 °F 12.9 °F 74% 30.27 in 8.0 mi NW 16.1 mph - 0.00 in Snow Light Snow
5:53 AM 19.0 °F 6.1 °F 10.9 °F 71% 30.30 in 10.0 mi NW 12.7 mph - 0.00 in   Overcast
6:53 AM 19.9 °F 5.2 °F 10.9 °F 68% 30.30 in 10.0 mi WNW 17.3 mph - N/A   Overcast
7:53 AM 19.9 °F 4.8 °F 10.9 °F 68% 30.29 in 10.0 mi WNW 18.4 mph - N/A   Overcast
8:53 AM 19.0 °F 4.0 °F 10.9 °F 71% 30.30 in 10.0 mi NW 17.3 mph 23.0 mph N/A   Overcast
9:53 AM 19.9 °F 5.2 °F 10.0 °F 65% 30.34 in 10.0 mi WNW 17.3 mph - N/A   Overcast
10:53 AM 23.0 °F 8.7 °F 12.0 °F 63% 30.32 in 10.0 mi NW 18.4 mph 27.6 mph N/A   Mostly Cloudy
11:53 AM 24.1 °F 8.3 °F 12.9 °F 62% 30.28 in 10.0 mi WNW 24.2 mph - N/A   Partly Cloudy
12:53 PM 27.0 °F 12.8 °F 12.9 °F 56% 30.24 in 10.0 mi WNW 21.9 mph 27.6 mph N/A   Clear
1:53 PM 26.1 °F 12.3 °F 10.9 °F 53% 30.25 in 10.0 mi WNW 19.6 mph 26.5 mph N/A   Partly Cloudy
2:53 PM 26.1 °F 11.3 °F 12.0 °F 55% 30.26 in 10.0 mi WNW 23.0 mph 33.4 mph N/A   Clear
3:53 PM 25.0 °F 11.7 °F 12.0 °F 58% 30.30 in 10.0 mi WNW 17.3 mph - N/A   Mostly Cloudy
4:53 PM 23.0 °F 8.3 °F 10.0 °F 58% 30.35 in 10.0 mi NW 19.6 mph 26.5 mph N/A   Overcast
5:53 PM 19.0 °F 5.0 °F 9.0 °F 65% 30.38 in 10.0 mi NNW 15.0 mph - N/A   Overcast
6:53 PM 18.0 °F 5.4 °F 8.1 °F 65% 30.41 in 10.0 mi NW 11.5 mph - N/A   Overcast
7:53 PM 15.1 °F 3.3 °F 7.0 °F 70% 30.43 in 10.0 mi NW 9.2 mph - N/A   Overcast
8:53 PM 12.0 °F -2.0 °F 5.0 °F 73% 30.46 in 10.0 mi WNW 11.5 mph - N/A   Overcast
9:53 PM 10.0 °F -4.5 °F 3.0 °F 73% 30.47 in 10.0 mi NW 11.5 mph - N/A   Clear
10:53 PM 9.0 °F -5.9 °F 1.9 °F 73% 30.47 in 10.0 mi NW 11.5 mph - N/A   Clear
11:53 PM 6.1 °F -4.3 °F -0.0 °F 76% 30.48 in 10.0 mi NW 5.8 mph - N/A   Clear